NOAA 16 DEB, 41363

Orbit data source: Space-Track

NOAA 16 DEB, 41363 is space debris in SSO originally from a launch on Thu, 21 Sep 2000 UTC launched from the Air Force Western Test Range (AFWTR). Debris objects in space refer to the collection of defunct objects orbiting the Earth. Examples of debris include non-operational satellites, rocket bodies, and fragments generated from explosions, collisions, or faulty payload assembly.

Loading next visibility...
Identifier
41363, 2000-055JG
Orbit
SSO
Country
Flag of USUS
Related business
Manufacturer
Unknown
Mission
Spacecraft
Bus & Motor
Unknown
Mass
Unknown
Launch date (UTC)
2000-09-21 (26 years ago)
Launch vehicle
Unknown
Launch site
Air Force Western Test Range (AFWTR)
Object type
Payload
Rocket body
Debris
Shape & HBR
Unknown shape, 0.1 m
Radar Cross Section
Medium (>0.1 m² and <1 m²)

Expand to show TLE details & history
Last TLE update: 2 days ago

TLE from 2 days ago
0 NOAA 16 DEB
1 41363U 00055JG  26171.40406772  .00030987  00000-0  31608-2 0  9991
2 41363  98.8972  25.7030 0011733  13.1997 346.9522 14.90534692541581
Epoch: 2026-06-20T09:41Z
TLE epoch observation values (Epoch: 2026-06-20T09:41:51.451Z)
Latitude
-0.00009°
Longitude
-28.38054°
Altitude
591.298 km
Speed
7.569 km/s
True Right ascension
01h 42m 48s
True Declination
0° 00' 00"
Sunlit
Object was in daylight at epoch
Visualization orbit readout
Latitude
Unknown
Longitude
Unknown
Altitude
Unknown
Speed
Unknown
Apparent Right ascension
Unknown
Apparent Declination
Unknown
Sunlit
N/A
Visualization observer readout
Local Sidereal Time
23:18:54
Azimuth
Unknown
Elevation
Unknown
Doppler factor
Unknown
Orbital elements
Apogee altitude
601.521 km
Perigee altitude
585.162 km
Semi-major axis
6,971.479 km
Eccentricity
0.00117
Inclination
98.8972°
RAAN
25.703°
Arg. of periapsis
13.1997°
True anomaly
346.9218°
Mean anomaly
346.9522°
Eccentric anomaly
346.93701°
Mean motion
3.72869 °/min
Orbital period
96.55 mins
BSTAR
0.0031608
Loading maneuver chart data...
Computing Atmospheric mass density...
Loading historical data...
Loading historical data...
Loading historical data...
Loading historical data...
Loading historical data...
Loading historical data...
Loading historical data...

Documentation

Showing up to 5 results
|